Temp_Advection
nan nan nan nan nan nan nan nan nan nan nan nan nan nan nan nan nan nan nan nan nan nan nan nan nan nan nan nan nan nan nan nan nan nan nan nan nan nan nan nan nan nan nan
nan 0 0 0 -0 0 -0 0 -0 -0 0 0 -0 -0 -0 -1 -0 -0 -0 -0 0 0 0 0 -0 0 0 0 0 0 0 -0 0 0 0 0 -0 -0 0 -0 -0 -0 nan
nan 0 0 0 0 0 0 0 0 0 0 0 0 -0 -0 -0 -0 -0 -0 0 0 -0 -0 0 0 0 0 0 -0 0 0 0 1 0 -0 -0 -0 0 0 0 0 0 nan
nan -0 -0 -0 0 -0 -0 -0 0 0 0 0 -0 -0 -0 -0 -0 0 0 0 0 0 0 0 0 0 0 0 0 0 0 1 0 -0 -0 -0 0 -0 0 0 0 0 nan
nan -0 0 -0 -0 0 0 0 0 0 -0 0 -0 0 0 0 0 0 0 0 0 0 0 0 0 0 0 0 0 0 0 0 -0 -0 0 0 -0 0 -0 -0 0 -1 nan
nan -0 -0 -0 -0 -0 -0 -0 0 0 -0 0 0 0 0 -0 -0 -0 -0 -0 0 0 -0 0 0 0 0 0 0 0 0 0 0 1 0 -0 1 1 -0 0 -0 0 nan
nan -1 -0 -1 -0 -0 -0 0 0 0 -0 0 0 0 -0 -0 -0 -0 -0 -0 -0 -0 -0 0 0 0 0 0 0 0 0 0 0 -0 -0 0 1 -0 -0 0 -0 0 nan
nan -1 -1 -1 -0 -0 -0 -0 -0 -0 0 0 0 -0 -0 -0 -0 -0 0 0 0 -0 0 0 0 0 0 0 0 0 0 0 0 0 0 0 0 0 0 0 0 0 nan
nan -1 -1 -1 0 0 -0 -0 -0 -0 -0 -0 -0 -0 0 0 -0 -0 -0 -0 -0 0 0 0 -0 0 0 0 0 0 0 0 0 0 0 0 0 0 0 0 0 0 nan
nan -1 -1 0 1 0 0 -0 -0 -0 -0 -0 -0 -0 -0 -0 -0 -0 -0 0 0 -0 0 0 -0 -0 0 0 0 0 0 0 0 0 0 0 1 1 0 0 0 1 nan
nan -1 -1 0 0 0 0 0 0 -0 0 -0 -0 -0 -0 -0 -0 -0 -0 -1 -0 0 -0 0 -0 0 0 1 0 -0 0 0 0 0 0 0 0 0 0 0 1 0 nan
nan -1 -0 -0 0 0 -0 -0 0 0 0 0 0 0 -0 -0 -0 -0 -0 -0 -0 -1 1 0 -1 0 0 1 0 0 0 0 1 0 0 1 0 0 0 1 1 0 nan
nan -1 -0 -1 -2 -2 -1 -1 -0 -0 0 0 0 0 0 0 -0 -0 -0 -0 -0 -0 0 -0 -1 0 1 1 0 -0 -1 0 1 0 0 1 0 0 0 0 0 1 nan
nan -1 -1 -1 -2 -2 -2 -3 -2 -1 -1 -1 -0 -0 0 0 0 -0 -0 -0 -0 -0 0 0 0 0 0 -0 -0 -0 -0 0 1 1 0 0 0 1 0 0 1 1 nan
nan -1 -1 -1 -1 -1 -2 -2 -2 -3 -3 -3 -2 -2 -1 -1 -0 0 0 0 0 0 -0 -0 0 0 0 0 -0 -0 -0 0 0 1 1 -0 -0 1 1 1 1 1 nan
nan -1 -1 -1 -2 -3 -2 -1 -1 -2 -3 -3 -3 -4 -4 -3 -2 -2 -1 -0 0 0 -0 -0 -0 0 1 0 0 0 -0 -0 0 0 1 1 1 1 2 2 1 1 nan
nan -1 -1 -0 -1 -2 -2 -3 -2 -2 -1 -2 -2 -2 -3 -4 -4 -4 -4 -3 -1 -1 -0 -0 -0 -0 -0 1 1 0 0 -0 -0 0 1 1 1 2 2 1 1 1 nan
nan -1 -1 -1 -0 -1 -1 -2 -2 -3 -2 -2 -1 -2 -2 -3 -3 -3 -3 -3 -3 -3 -2 -1 -0 -0 -1 0 1 1 0 0 -0 -0 0 1 2 2 2 1 2 1 nan
nan -0 -0 -1 -1 -0 -1 -1 -1 -2 -2 -2 -2 -2 -1 -1 -2 -3 -3 -3 -2 -2 -3 -4 -1 -1 -1 -0 1 1 1 -0 0 0 1 1 1 1 2 2 2 0 nan
nan -0 -0 -1 -1 -0 -0 -0 -0 -0 -0 -1 -0 -1 -1 -1 -1 -2 -3 -3 -2 -2 -2 -4 -4 -0 -1 -2 1 1 -0 -0 0 0 1 0 1 2 2 2 1 -0 nan
nan -0 -0 -0 -0 -1 -1 -1 -1 -1 -1 -0 1 1 0 -0 0 0 -1 -2 -3 -3 -1 -1 -4 -3 -1 -0 0 0 -0 -0 0 0 0 0 1 2 2 1 0 0 nan
nan 1 0 -0 -0 -0 -1 -1 -1 -1 -1 -2 -1 -1 0 0 -0 0 1 -0 -1 -2 -2 -2 -3 -2 -1 -1 -0 -1 -0 0 -0 -0 1 1 1 2 3 1 1 1 nan
nan -0 -0 -1 -0 -0 -0 -0 -1 -1 -1 -1 -2 -2 -2 -0 0 -0 -1 -0 -0 -1 -1 -1 -2 -2 -1 -1 -1 -1 -0 1 1 0 1 1 2 3 2 -0 1 2 nan
nan -1 -1 -1 -1 -1 -0 0 -0 -1 -1 -1 -1 -1 -2 -3 -2 -0 -1 -1 -1 -1 -1 -1 -1 -1 -1 -1 -1 -1 -0 1 1 0 0 1 2 3 1 2 2 2 nan
nan -0 -1 -0 -1 -1 -0 -0 -1 -1 -1 -1 -1 -0 -0 -1 -2 -1 -1 -0 -1 -2 -1 -1 -1 -1 -2 -2 -1 -0 0 1 0 1 2 3 2 1 1 2 2 2 nan
nan nan nan nan nan nan nan nan nan nan nan nan nan nan nan nan nan nan nan nan nan nan nan nan nan nan nan nan nan nan nan nan nan nan nan nan nan nan nan nan nan nan nan
Wind_Speed
8 8 9 11 8 7 26 29 24 22 20 19 19 19 23 24 21 20 21 18 18 18 21 22 22 22 23 24 24 24 24 23 21 19 17 17 18 20 20 19 21 22 21
6 8 4 8 6 2 3 12 13 18 18 18 19 19 19 20 19 19 20 19 20 19 19 20 20 21 23 25 25 26 26 26 25 20 14 9 15 21 23 23 23 23 22
12 11 9 8 9 9 14 3 4 10 19 20 18 17 17 17 19 22 23 21 18 17 18 20 21 22 23 25 25 26 28 29 28 28 13 8 11 14 20 26 25 24 24
18 15 12 11 11 6 5 9 9 18 19 18 16 15 16 20 20 21 20 19 20 21 21 23 23 24 25 26 27 28 29 30 31 31 30 19 10 10 8 22 27 25 25
23 15 12 13 11 7 6 5 4 11 21 17 17 15 16 16 17 17 17 18 20 21 22 22 23 24 26 27 27 28 30 32 31 34 34 34 25 15 8 7 18 30 30
27 21 8 6 5 3 6 6 8 0 10 17 20 17 19 18 17 17 17 17 19 21 22 22 24 26 27 28 28 29 31 33 34 36 36 35 32 24 19 12 11 17 23
30 27 22 18 15 16 7 4 3 2 1 7 17 18 18 19 19 19 19 19 19 20 21 22 23 25 26 28 30 31 32 33 36 38 39 38 38 26 27 21 18 16 21
29 30 29 26 24 22 11 13 11 11 11 10 6 10 11 16 21 21 22 23 22 22 22 22 23 24 25 27 29 31 32 34 36 38 40 41 40 39 38 32 24 22 20
28 29 29 29 27 26 23 21 14 11 14 10 11 14 13 20 20 21 21 24 27 26 26 26 26 26 27 28 30 32 33 36 37 38 39 41 42 41 40 40 39 31 21
26 27 27 28 29 28 25 21 19 16 14 13 11 10 11 10 13 21 23 23 22 24 27 26 26 29 31 33 33 35 34 36 37 39 39 40 41 43 44 42 40 40 35
24 24 24 26 27 27 26 25 22 21 17 16 15 12 9 9 11 14 13 19 33 26 25 24 26 27 31 37 36 38 37 38 38 40 41 42 42 42 43 41 41 40 38
21 22 24 26 28 28 26 27 25 24 22 20 18 15 14 13 11 10 12 14 20 23 30 26 31 29 32 30 30 32 42 42 40 41 40 39 40 41 41 41 41 39 37
21 21 22 25 28 29 28 27 26 25 24 23 22 20 17 15 14 14 14 14 15 17 21 24 26 32 31 28 29 30 32 35 45 46 42 39 37 37 38 39 39 38 38
22 24 25 24 25 26 28 28 28 28 27 26 25 25 23 22 20 19 18 18 17 18 18 21 22 24 25 27 26 29 29 30 37 44 48 46 44 41 38 41 39 38 38
22 24 27 29 30 30 30 30 30 31 31 30 31 31 31 30 27 25 24 23 23 23 22 21 23 24 26 27 27 27 28 30 34 38 42 46 48 48 43 41 41 38 41
20 21 22 24 27 30 32 33 34 35 35 33 34 34 34 34 33 32 31 29 29 27 27 27 26 26 26 26 26 27 27 28 31 37 42 44 45 45 43 40 39 37 40
18 20 21 21 22 24 28 31 33 34 35 36 36 35 35 35 35 35 35 34 33 33 32 31 31 31 30 28 25 25 26 28 29 30 34 42 45 44 42 43 39 38 41
18 18 19 21 21 22 23 24 25 27 30 31 33 35 37 38 38 38 37 37 36 36 36 36 34 34 34 32 28 26 29 28 29 30 30 34 40 43 45 44 41 45 44
13 14 15 18 20 22 25 26 26 26 26 29 33 35 36 38 38 39 39 39 41 40 39 40 39 36 36 35 32 29 30 33 32 32 31 32 35 39 44 46 46 49 44
14 16 17 17 17 21 23 25 27 28 29 32 33 33 35 36 38 38 39 39 38 40 42 41 40 40 37 35 34 30 32 34 35 35 34 33 33 38 46 48 50 47 42
15 15 15 17 19 21 24 25 26 26 31 33 35 37 36 37 38 40 38 39 40 40 40 39 41 41 37 38 34 30 32 36 37 37 37 36 34 37 45 48 48 46 40
19 18 19 20 20 21 23 26 26 30 32 34 36 38 39 38 39 39 40 40 39 39 38 37 39 42 38 38 33 32 33 35 37 38 38 38 36 38 42 46 46 43 36
20 20 21 23 22 22 23 26 27 30 32 34 35 38 38 38 38 37 39 39 38 39 36 35 37 36 35 35 33 32 32 33 36 38 38 33 33 36 42 46 44 39 36
19 20 23 23 24 24 26 26 28 30 32 35 36 38 37 38 38 38 34 39 38 39 34 36 38 34 34 33 31 29 32 31 35 39 40 36 32 37 46 43 41 40 40
18 21 23 25 27 28 28 27 28 29 33 35 36 39 36 39 39 36 36 36 34 32 37 37 35 35 36 33 28 29 30 33 36 41 44 40 35 47 45 42 42 40 37
22 22 23 25 28 29 29 28 27 28 32 36 36 36 35 38 39 41 41 36 32 31 30 29 28 31 32 28 27 27 26 26 36 44 45 40 42 49 49 44 44 39 36
Wind_Direction
156 122 107 90 76 36 196 189 188 197 204 204 198 202 204 212 210 208 199 204 208 213 213 215 215 213 213 214 213 211 210 209 208 209 207 211 211 209 210 211 215 218 218
109 135 108 69 78 200 59 147 196 208 213 215 212 216 214 214 216 209 207 213 216 217 216 216 217 217 215 216 217 220 218 219 219 209 201 206 223 220 220 220 219 220 223
101 99 102 171 182 170 211 181 197 224 221 221 221 222 222 222 218 209 212 219 223 224 220 220 223 225 225 226 227 226 226 228 221 212 201 196 222 211 227 224 223 225 226
57 67 86 80 52 14 262 215 227 216 213 218 224 223 223 221 215 219 227 230 227 226 226 228 229 232 233 234 234 235 234 231 232 224 215 212 200 197 213 225 226 226 229
45 49 82 77 75 77 106 130 209 218 208 206 223 224 221 226 231 237 240 239 237 236 235 236 236 235 235 237 238 238 237 235 233 234 231 227 230 224 208 203 220 228 230
42 49 43 359 2 14 78 79 85 78 238 226 221 226 236 238 242 246 242 244 244 243 241 241 242 241 241 241 242 243 242 242 239 242 239 240 236 235 231 226 222 232 231
36 37 41 37 23 26 316 272 191 76 60 232 235 235 240 250 255 253 250 248 250 247 246 249 251 249 248 247 246 244 243 241 240 241 244 245 247 238 244 239 243 244 235
36 38 37 40 40 43 30 36 14 284 276 272 259 232 246 261 258 256 255 254 252 252 254 256 256 254 252 250 249 247 245 244 244 244 245 247 248 249 249 247 240 242 242
33 34 37 39 40 45 45 41 29 31 33 23 296 283 254 249 271 269 262 257 257 255 257 255 253 253 253 252 251 251 249 247 246 245 246 248 250 250 248 249 248 242 239
24 26 27 35 41 45 45 49 47 42 33 37 24 355 335 324 264 259 262 265 261 256 256 256 252 252 254 252 252 252 251 250 249 248 246 248 248 250 251 248 249 248 245
17 16 17 23 27 31 36 36 38 35 35 26 25 20 8 344 321 312 287 261 263 275 267 258 261 265 262 249 251 251 249 249 250 251 248 248 248 248 250 251 249 248 247
17 12 11 12 16 18 20 21 20 18 19 20 20 16 5 360 352 333 314 295 276 266 262 266 265 267 278 263 254 256 253 248 249 249 251 251 250 249 249 249 248 249 248
8 8 10 9 8 6 5 4 2 359 358 355 354 352 351 350 345 336 330 320 308 286 272 269 263 258 257 262 265 258 248 257 251 246 246 247 248 252 251 248 246 244 243
1 358 360 0 359 358 355 352 349 345 340 337 332 330 328 326 325 323 321 311 308 302 291 277 270 268 267 267 268 265 259 258 248 246 244 241 240 241 249 246 244 242 238
360 358 355 352 351 350 348 347 343 337 332 327 322 318 315 313 309 307 304 303 301 297 294 285 278 268 268 264 262 263 261 257 254 248 245 243 241 242 238 235 237 237 228
354 354 353 351 349 346 343 339 336 336 334 329 324 318 311 305 303 300 295 292 291 293 292 288 286 280 269 267 266 261 260 261 259 252 247 243 241 239 238 236 239 235 231
349 349 350 350 349 348 345 341 338 333 330 328 324 320 317 312 306 300 292 287 283 281 281 282 283 281 280 270 265 261 260 259 261 261 252 246 245 240 232 231 229 225 223
344 344 344 346 347 346 346 346 345 340 336 334 331 327 324 318 313 307 302 296 288 280 275 270 271 275 275 275 260 256 260 260 258 255 254 251 245 239 229 227 226 217 228
334 332 335 338 339 341 341 340 340 340 342 339 338 335 331 324 319 313 307 301 295 288 279 273 268 266 266 269 265 253 253 257 258 257 253 249 245 243 234 229 222 223 230
336 334 333 336 339 341 342 342 341 340 337 334 331 329 329 326 322 318 312 305 298 290 285 279 271 268 265 264 264 252 249 252 255 254 252 248 247 244 237 228 222 228 225
330 329 329 331 337 339 338 338 337 335 335 334 332 331 331 327 324 320 313 309 304 296 286 279 276 269 264 264 258 255 250 251 252 253 251 249 245 243 236 231 227 229 231
328 327 326 328 333 334 334 332 331 331 332 334 335 335 332 330 328 324 322 318 310 304 291 281 281 275 267 263 258 250 246 253 252 252 252 250 245 243 237 233 224 223 232
321 323 323 325 328 328 329 326 327 329 329 331 333 336 334 333 328 321 319 318 312 304 293 280 286 278 271 267 259 252 247 250 251 252 254 253 250 243 220 226 216 220 202
319 320 322 321 324 326 328 326 327 327 327 329 332 336 333 331 331 326 321 315 311 306 293 289 289 280 275 272 258 256 247 245 242 247 251 252 246 225 216 213 208 196 195
318 320 321 321 324 328 328 328 328 327 327 330 333 334 334 327 328 326 320 313 310 300 293 290 288 281 278 273 268 263 261 249 237 238 240 237 223 199 197 196 192 194 192
316 320 321 322 326 329 329 329 328 328 329 331 333 333 326 328 329 326 322 322 317 310 292 285 277 277 277 277 273 264 264 256 244 231 226 217 211 201 192 191 189 192 191
Height
1478 1478 1483 1481 1484 1482 1487 1491 1495 1503 1508 1512 1515 1519 1522 1524 1527 1529 1532 1536 1538 1541 1543 1545 1547 1550 1553 1556 1559 1561 1563 1565 1567 1569 1571 1572 1572 1574 1575 1577 1578 1580 1581
1479 1479 1477 1473 1482 1494 1483 1492 1496 1502 1507 1511 1515 1518 1521 1524 1527 1529 1532 1534 1536 1538 1541 1543 1545 1548 1550 1553 1555 1558 1560 1562 1564 1567 1570 1572 1572 1570 1572 1572 1574 1575 1577
1482 1483 1486 1492 1496 1495 1493 1487 1493 1500 1505 1509 1513 1516 1519 1522 1524 1526 1528 1531 1533 1536 1539 1541 1543 1545 1548 1550 1553 1554 1556 1558 1561 1562 1566 1568 1567 1567 1568 1569 1570 1572 1573
1483 1486 1490 1491 1484 1484 1488 1488 1493 1499 1502 1508 1512 1514 1517 1519 1521 1524 1527 1529 1530 1532 1534 1537 1539 1541 1543 1545 1548 1551 1552 1555 1556 1558 1559 1560 1562 1563 1565 1565 1566 1568 1570
1487 1491 1493 1495 1497 1501 1498 1498 1497 1496 1503 1504 1510 1512 1515 1518 1519 1522 1524 1526 1527 1529 1531 1533 1535 1537 1538 1541 1543 1545 1547 1549 1552 1552 1554 1556 1557 1559 1561 1561 1560 1562 1564
1496 1496 1497 1500 1500 1501 1499 1501 1497 1501 1502 1503 1504 1509 1514 1515 1516 1518 1520 1522 1523 1525 1526 1528 1530 1532 1533 1535 1538 1540 1541 1543 1547 1548 1550 1551 1552 1555 1556 1558 1557 1556 1557
1504 1502 1500 1498 1499 1496 1497 1496 1500 1502 1502 1504 1505 1506 1510 1511 1512 1514 1516 1517 1518 1520 1521 1523 1524 1526 1528 1530 1531 1532 1534 1536 1538 1541 1542 1545 1547 1550 1552 1554 1553 1554 1553
1514 1509 1504 1502 1501 1498 1497 1499 1497 1501 1503 1504 1503 1504 1505 1506 1509 1510 1511 1513 1513 1514 1517 1518 1518 1520 1521 1523 1524 1525 1526 1529 1531 1532 1535 1536 1539 1542 1545 1547 1549 1549 1547
1520 1516 1514 1510 1505 1502 1500 1499 1499 1500 1499 1499 1500 1499 1500 1503 1502 1504 1505 1507 1508 1508 1510 1511 1512 1513 1514 1516 1517 1517 1519 1520 1522 1524 1527 1528 1531 1532 1535 1538 1540 1542 1542
1527 1523 1519 1514 1509 1507 1506 1504 1504 1503 1503 1501 1499 1497 1496 1497 1498 1499 1498 1499 1499 1501 1502 1503 1504 1505 1506 1508 1509 1509 1511 1512 1514 1516 1518 1519 1522 1523 1526 1527 1531 1534 1536
1532 1528 1524 1519 1516 1514 1508 1506 1503 1502 1500 1499 1496 1496 1497 1496 1494 1492 1493 1493 1494 1494 1495 1495 1496 1496 1497 1498 1500 1500 1502 1503 1505 1507 1509 1510 1513 1513 1516 1520 1523 1525 1527
1535 1532 1526 1522 1518 1514 1512 1510 1508 1506 1503 1502 1499 1498 1497 1494 1493 1491 1490 1489 1489 1488 1486 1485 1486 1486 1488 1490 1489 1490 1492 1493 1494 1497 1498 1500 1503 1507 1507 1510 1513 1516 1519
1536 1532 1529 1524 1519 1516 1513 1510 1508 1506 1504 1502 1500 1498 1497 1495 1492 1490 1488 1488 1485 1482 1481 1481 1479 1479 1480 1481 1482 1480 1479 1481 1482 1485 1487 1490 1492 1496 1498 1501 1504 1505 1509
1535 1531 1526 1523 1520 1516 1512 1509 1507 1505 1502 1500 1498 1496 1495 1493 1490 1487 1485 1483 1480 1479 1476 1475 1474 1472 1471 1472 1470 1472 1472 1471 1471 1474 1474 1477 1478 1483 1489 1492 1493 1498 1501
1537 1532 1526 1521 1517 1513 1510 1507 1505 1502 1499 1496 1494 1491 1488 1486 1483 1480 1479 1477 1475 1474 1472 1470 1467 1465 1464 1463 1463 1463 1462 1462 1462 1463 1464 1467 1469 1471 1475 1478 1482 1486 1489
1536 1533 1529 1524 1518 1513 1508 1504 1499 1496 1494 1491 1488 1485 1482 1479 1475 1472 1470 1468 1467 1464 1463 1461 1459 1456 1455 1456 1456 1457 1455 1455 1452 1453 1456 1457 1461 1463 1468 1472 1475 1480 1485
1536 1532 1528 1525 1521 1516 1510 1504 1499 1495 1490 1485 1481 1478 1475 1472 1469 1466 1464 1461 1458 1456 1455 1452 1451 1449 1447 1448 1448 1448 1447 1446 1446 1446 1445 1448 1452 1455 1459 1464 1466 1470 1476
1535 1531 1527 1523 1519 1516 1511 1507 1501 1495 1489 1484 1480 1474 1469 1464 1459 1456 1453 1451 1449 1447 1445 1443 1442 1440 1439 1439 1440 1440 1439 1437 1438 1438 1438 1439 1442 1446 1450 1454 1457 1464 1467
1534 1530 1526 1522 1518 1514 1509 1504 1499 1494 1489 1483 1476 1470 1465 1459 1454 1448 1443 1441 1438 1435 1433 1432 1430 1429 1430 1430 1429 1429 1428 1428 1428 1429 1429 1430 1432 1436 1440 1445 1450 1455 1462
1533 1529 1525 1521 1516 1511 1506 1501 1495 1490 1485 1479 1474 1468 1462 1454 1447 1441 1436 1432 1429 1424 1421 1418 1418 1418 1417 1418 1419 1419 1418 1418 1419 1420 1421 1422 1424 1430 1432 1437 1442 1449 1453
1529 1525 1521 1518 1513 1508 1503 1498 1493 1488 1482 1476 1470 1464 1456 1449 1442 1435 1429 1423 1417 1412 1408 1406 1405 1404 1404 1405 1407 1408 1408 1408 1410 1408 1412 1414 1416 1420 1425 1428 1433 1442 1446
1525 1521 1517 1512 1508 1504 1500 1495 1490 1484 1477 1471 1463 1455 1448 1440 1434 1426 1419 1413 1408 1402 1397 1395 1392 1391 1391 1392 1395 1397 1399 1399 1399 1400 1403 1406 1410 1411 1416 1421 1428 1434 1439
1522 1518 1514 1508 1505 1500 1496 1490 1485 1478 1471 1465 1458 1450 1442 1434 1426 1419 1412 1405 1401 1395 1389 1387 1384 1382 1382 1380 1384 1386 1388 1389 1389 1391 1394 1398 1402 1406 1409 1413 1422 1426 1431
1518 1514 1509 1504 1500 1495 1491 1485 1479 1473 1466 1459 1452 1445 1437 1428 1421 1414 1407 1400 1393 1387 1382 1379 1375 1372 1371 1371 1373 1376 1378 1380 1381 1383 1385 1391 1395 1400 1402 1407 1414 1419 1425
1514 1510 1505 1499 1494 1489 1484 1480 1474 1468 1461 1454 1447 1439 1431 1424 1415 1408 1402 1394 1387 1382 1375 1370 1367 1365 1362 1363 1365 1367 1368 1370 1371 1373 1377 1382 1388 1393 1398 1401 1407 1413 1419
1509 1505 1500 1495 1489 1483 1478 1474 1469 1463 1456 1448 1442 1434 1428 1419 1411 1401 1390 1386 1379 1372 1366 1362 1359 1357 1355 1355 1356 1357 1359 1361 1362 1364 1367 1371 1377 1385 1390 1394 1400 1407 1414